Miscellaneous Local Product
Issued by NWS Hastings, NE

Home | Current Version | Previous Version | Graphics & Text | Print | Product List | Glossary On
Versions: 1 2 3 4 5 6 7 8 9 10 11 12 13 14 15 16 17 18 19 20 21 22 23 24 25 26 27 28 29 30 31 32 33 34 35 36 37 38 39 40 41 42 43 44 45 46 47 48 49 50
000
AXUS43 KGID 280902
MISGRI

GID CWA HOURLY WEATHER ROUNDUP
NATIONAL WEATHER SERVICE HASTINGS NE
400 AM CDT MON JUL 28 2014

NOTE: "FAIR" INDICATES FEW OR NO CLOUDS BELOW 12,000 FEET WITH NO
SIGNIFICANT WEATHER AND/OR OBSTRUCTIONS TO VISIBILITY.

...SOUTH CENTRAL NEBRASKA...

CITY           SKY/WX    TMP DP  RH WIND       PRES   REMARKS
GRAND ISLAND   CLEAR     58  55  90 N6        30.28S
HASTINGS       CLEAR     60  55  83 NE5       30.27S
KEARNEY        CLEAR     59  55  88 CALM      30.29R
ORD            CLEAR     53  52  96 CALM      30.29R
YORK             N/A     55  55 100 NW6       30.26S
AURORA         CLEAR     57  57 100 W3        30.27S
LEXINGTON      CLEAR     57  55  92 CALM      30.30S
HOLDREGE       CLEAR     58  56  91 NE5       30.29S
HEBRON         CLEAR     61  56  82 CALM      30.24S

...NEBRASKA PANHANDLE...

CITY           SKY/WX    TMP DP  RH WIND       PRES   REMARKS
CHADRON        CLEAR     59  51  75 N5        30.34R
ALLIANCE       CLEAR     54  47  77 E5        30.34S
SCOTTSBLUFF    CLEAR     62  50  64 E12       30.32F
SIDNEY         CLEAR     60  47  61 SE8       30.35S

...WESTERN AND NORTH CENTRAL NEBRASKA...

CITY           SKY/WX    TMP DP  RH WIND       PRES   REMARKS
VALENTINE      CLEAR     52  49  89 CALM      30.33R
AINSWORTH      CLEAR     54  53  95 CALM      30.32F
ONEILL         CLEAR     53  50  89 W5        30.30S
BROKEN BOW     CLEAR     54  52  93 N5        30.30S
IMPERIAL       PTCLDY    60  51  72 E7        30.32S
NORTH PLATTE   CLEAR     54  50  86 NE5       30.31S
MCCOOK         PTCLDY    60  52  74 NE5       30.29S

...EASTERN NEBRASKA...

CITY           SKY/WX    TMP DP  RH WIND       PRES   REMARKS
NORFOLK        CLEAR     56  53  90 W7        30.26R
SO SIOUX CITY  CLEAR     59  56  89 N6        30.22S
ALBION         CLEAR     55  53  94 CALM      30.28R
OMAHA EPPLEY   CLEAR     61  55  81 N8        30.21R
OFFUTT AFB     CLEAR     63  58  84 N8        30.19S
MILLARD        CLEAR     63  56  78 N7        30.21R
LINCOLN        CLEAR     57  53  86 N3        30.24R
NEBRASKA CITY  CLEAR     58  56  92 NW5       30.20S
BEATRICE       CLEAR     57  56  96 N8        30.23S
FALLS CITY     NOT AVBL

...NORTHERN KANSAS...

CITY           SKY/WX    TMP DP  RH WIND       PRES   REMARKS
GOODLAND       CLOUDY    62  54  74 S7        30.32S
HILL CITY      MOCLDY    61  54  77 N6        30.26R
NORTON         SUNNY     57  52  82 N5        30.26S
PHILLIPSBURG   CLEAR     63  54  72 CALM      30.26R
SMITH CENTER   CLEAR     63  57  82 NE7       30.25S
HAYS           PTCLDY    64  52  63 NE5       30.24S
RUSSELL        MOCLDY    62  54  74 CALM      30.22S
CONCORDIA      CLEAR     63  58  83 N9        30.22S
SALINA         CLEAR     66  56  70 MISG      30.20S
TOPEKA         CLEAR     63  58  83 N5        30.18R



USA.gov is the U.S. government's official web portal to all federal, state and local government web resources and services.